Year,Month,Day,Hour,Minute,Value (Times are PST for temperature in C)
2021,07,07,00,00,20.30
2021,07,07,00,01,20.20
2021,07,07,00,02,20.20
2021,07,07,00,03,20.20
2021,07,07,00,04,20.20
2021,07,07,00,05,20.20
2021,07,07,00,06,20.20
2021,07,07,00,07,20.20
2021,07,07,00,08,20.20
2021,07,07,00,09,20.20
2021,07,07,00,10,20.20
2021,07,07,00,11,20.20
2021,07,07,00,12,20.10
2021,07,07,00,13,20.10
2021,07,07,00,14,20.10
2021,07,07,00,15,20.10
2021,07,07,00,16,20.00
2021,07,07,00,17,20.00
2021,07,07,00,18,20.00
2021,07,07,00,19,19.90
2021,07,07,00,20,19.90
2021,07,07,00,21,19.90
2021,07,07,00,22,19.90
2021,07,07,00,23,19.80
2021,07,07,00,24,19.80
2021,07,07,00,25,19.80
2021,07,07,00,26,19.80
2021,07,07,00,27,19.80
2021,07,07,00,28,19.70
2021,07,07,00,29,19.70
2021,07,07,00,30,19.70
2021,07,07,00,31,19.70
2021,07,07,00,32,19.70
2021,07,07,00,33,19.70
2021,07,07,00,34,19.70
2021,07,07,00,35,19.60
2021,07,07,00,36,19.60
2021,07,07,00,37,19.60
2021,07,07,00,38,19.60
2021,07,07,00,39,19.60
2021,07,07,00,40,19.60
2021,07,07,00,41,19.60
2021,07,07,00,42,19.60
2021,07,07,00,43,19.50
2021,07,07,00,44,19.50
2021,07,07,00,45,19.50
2021,07,07,00,46,19.50
2021,07,07,00,47,19.40
2021,07,07,00,48,19.40
2021,07,07,00,49,19.40
2021,07,07,00,50,19.40
2021,07,07,00,51,19.40
2021,07,07,00,52,19.30
2021,07,07,00,53,19.30
2021,07,07,00,54,19.30
2021,07,07,00,55,19.30
2021,07,07,00,56,19.20
2021,07,07,00,57,19.20
2021,07,07,00,58,19.20
2021,07,07,00,59,19.20
2021,07,07,01,00,19.20
2021,07,07,01,01,19.20
2021,07,07,01,02,19.10
2021,07,07,01,03,19.10
2021,07,07,01,04,19.10
2021,07,07,01,05,19.10
2021,07,07,01,06,19.10
2021,07,07,01,07,19.10
2021,07,07,01,08,19.10
2021,07,07,01,09,19.10
2021,07,07,01,10,19.10
2021,07,07,01,11,19.10
2021,07,07,01,12,19.00
2021,07,07,01,13,19.00
2021,07,07,01,14,19.00
2021,07,07,01,15,18.90
2021,07,07,01,16,18.90
2021,07,07,01,17,18.90
2021,07,07,01,18,18.90
2021,07,07,01,19,18.80
2021,07,07,01,20,18.80
2021,07,07,01,21,18.80
2021,07,07,01,22,18.80
2021,07,07,01,23,18.80
2021,07,07,01,24,18.80
2021,07,07,01,25,18.70
2021,07,07,01,26,18.70
2021,07,07,01,27,18.70
2021,07,07,01,28,18.70
2021,07,07,01,29,18.70
2021,07,07,01,30,18.70
2021,07,07,01,31,18.70
2021,07,07,01,32,18.70
2021,07,07,01,33,18.70
2021,07,07,01,34,18.70
2021,07,07,01,35,18.70
2021,07,07,01,36,18.70
2021,07,07,01,37,18.70
2021,07,07,01,38,18.70
2021,07,07,01,39,18.70
2021,07,07,01,40,18.80
2021,07,07,01,41,18.80
2021,07,07,01,42,18.80
2021,07,07,01,43,18.80
2021,07,07,01,44,18.80
2021,07,07,01,45,18.80
2021,07,07,01,46,18.80
2021,07,07,01,47,18.80
2021,07,07,01,48,18.80
2021,07,07,01,49,18.80
2021,07,07,01,50,18.80
2021,07,07,01,51,18.80
2021,07,07,01,52,18.80
2021,07,07,01,53,18.80
2021,07,07,01,54,18.80
2021,07,07,01,55,18.80
2021,07,07,01,56,18.80
2021,07,07,01,57,18.80
2021,07,07,01,58,18.80
2021,07,07,01,59,18.80
2021,07,07,02,00,18.80
2021,07,07,02,01,18.80
2021,07,07,02,02,18.80
2021,07,07,02,03,18.80
2021,07,07,02,04,18.80
2021,07,07,02,05,18.80
2021,07,07,02,06,18.80
2021,07,07,02,07,18.80
2021,07,07,02,08,18.80
2021,07,07,02,09,18.80
2021,07,07,02,10,18.80
2021,07,07,02,11,18.80
2021,07,07,02,12,18.80
2021,07,07,02,13,18.80
2021,07,07,02,14,18.80
2021,07,07,02,15,18.80
2021,07,07,02,16,18.80
2021,07,07,02,17,18.80
2021,07,07,02,18,18.80
2021,07,07,02,19,18.80
2021,07,07,02,20,18.70
2021,07,07,02,21,18.70
2021,07,07,02,22,18.70
2021,07,07,02,23,18.70
2021,07,07,02,24,18.60
2021,07,07,02,25,18.60
2021,07,07,02,26,18.60
2021,07,07,02,27,18.60
2021,07,07,02,28,18.50
2021,07,07,02,29,18.50
2021,07,07,02,30,18.50
2021,07,07,02,31,18.40
2021,07,07,02,32,18.40
2021,07,07,02,33,18.40
2021,07,07,02,34,18.40
2021,07,07,02,35,18.40
2021,07,07,02,36,18.40
2021,07,07,02,37,18.40
2021,07,07,02,38,18.40
2021,07,07,02,39,18.40
2021,07,07,02,40,18.40
2021,07,07,02,41,18.40
2021,07,07,02,42,18.40
2021,07,07,02,43,18.40
2021,07,07,02,44,18.40
2021,07,07,02,45,18.40
2021,07,07,02,46,18.40
2021,07,07,02,47,18.40
2021,07,07,02,48,18.40
2021,07,07,02,49,18.40
2021,07,07,02,50,18.40
2021,07,07,02,51,18.40
2021,07,07,02,52,18.40
2021,07,07,02,53,18.30
2021,07,07,02,54,18.30
2021,07,07,02,55,18.30
2021,07,07,02,56,18.30
2021,07,07,02,57,18.30
2021,07,07,02,58,18.30
2021,07,07,02,59,18.30
2021,07,07,03,00,18.20
2021,07,07,03,01,18.20
2021,07,07,03,02,18.20
2021,07,07,03,03,18.20
2021,07,07,03,04,18.20
2021,07,07,03,05,18.10
2021,07,07,03,06,18.10
2021,07,07,03,07,18.10
2021,07,07,03,08,18.00
2021,07,07,03,09,18.00
2021,07,07,03,10,17.90
2021,07,07,03,11,17.90
2021,07,07,03,12,17.90
2021,07,07,03,13,17.80
2021,07,07,03,14,17.80
2021,07,07,03,15,17.70
2021,07,07,03,16,17.70
2021,07,07,03,17,17.70
2021,07,07,03,18,17.60
2021,07,07,03,19,17.60
2021,07,07,03,20,17.60
2021,07,07,03,21,17.50
2021,07,07,03,22,17.50
2021,07,07,03,23,17.40
2021,07,07,03,24,17.40
2021,07,07,03,25,17.40
2021,07,07,03,26,17.40
2021,07,07,03,27,17.30
2021,07,07,03,28,17.30
2021,07,07,03,29,17.30
2021,07,07,03,30,17.30
2021,07,07,03,31,17.30
2021,07,07,03,32,17.30
2021,07,07,03,33,17.30
2021,07,07,03,34,17.30
2021,07,07,03,35,17.30
2021,07,07,03,36,17.30
2021,07,07,03,37,17.30
2021,07,07,03,38,17.30
2021,07,07,03,39,17.30
2021,07,07,03,40,17.30
2021,07,07,03,41,17.20
2021,07,07,03,42,17.20
2021,07,07,03,43,17.20
2021,07,07,03,44,17.30
2021,07,07,03,45,17.30
2021,07,07,03,46,17.30
2021,07,07,03,47,17.30
2021,07,07,03,48,17.30
2021,07,07,03,49,17.30
2021,07,07,03,50,17.30
2021,07,07,03,51,17.30
2021,07,07,03,52,17.30
2021,07,07,03,53,17.30
2021,07,07,03,54,17.30
2021,07,07,03,55,17.30
2021,07,07,03,56,17.30
2021,07,07,03,57,17.20
2021,07,07,03,58,17.20
2021,07,07,03,59,17.20
2021,07,07,04,00,17.20
2021,07,07,04,01,17.20
2021,07,07,04,02,17.10
2021,07,07,04,03,17.10
2021,07,07,04,04,17.10
2021,07,07,04,05,17.00
2021,07,07,04,06,17.00
2021,07,07,04,07,17.00
2021,07,07,04,08,16.90
2021,07,07,04,09,16.90
2021,07,07,04,10,16.90
2021,07,07,04,11,16.90
2021,07,07,04,12,16.80
2021,07,07,04,13,16.80
2021,07,07,04,14,16.80
2021,07,07,04,15,16.80
2021,07,07,04,16,16.80
2021,07,07,04,17,16.70
2021,07,07,04,18,16.70
2021,07,07,04,19,16.70
2021,07,07,04,20,16.70
2021,07,07,04,21,16.70
2021,07,07,04,22,16.70
2021,07,07,04,23,16.70
2021,07,07,04,24,16.70
2021,07,07,04,25,16.70
2021,07,07,04,26,16.70
2021,07,07,04,27,16.60
2021,07,07,04,28,16.60
2021,07,07,04,29,16.60
2021,07,07,04,30,16.60
2021,07,07,04,31,16.60
2021,07,07,04,32,16.60
2021,07,07,04,33,16.60
2021,07,07,04,34,16.60
2021,07,07,04,35,16.50
2021,07,07,04,36,16.50
2021,07,07,04,37,16.50
2021,07,07,04,38,16.50
2021,07,07,04,39,16.50
2021,07,07,04,40,16.50
2021,07,07,04,41,16.50
2021,07,07,04,42,16.50
2021,07,07,04,43,16.50
2021,07,07,04,44,16.40
2021,07,07,04,45,16.40
2021,07,07,04,46,16.40
2021,07,07,04,47,16.40
2021,07,07,04,48,16.40
2021,07,07,04,49,16.40
2021,07,07,04,50,16.40
2021,07,07,04,51,16.40
2021,07,07,04,52,16.40
2021,07,07,04,53,16.40
2021,07,07,04,54,16.40
2021,07,07,04,55,16.40
2021,07,07,04,56,16.40
2021,07,07,04,57,16.40
2021,07,07,04,58,16.40
2021,07,07,04,59,16.40
2021,07,07,05,00,16.30
2021,07,07,05,01,16.30
2021,07,07,05,02,16.30
2021,07,07,05,03,16.30
2021,07,07,05,04,16.30
2021,07,07,05,05,16.30
2021,07,07,05,06,16.30
2021,07,07,05,07,16.30
2021,07,07,05,08,16.30
2021,07,07,05,09,16.30
2021,07,07,05,10,16.30
2021,07,07,05,11,16.30
2021,07,07,05,12,16.30
2021,07,07,05,13,16.20
2021,07,07,05,14,16.20
2021,07,07,05,15,16.20
2021,07,07,05,16,16.20
2021,07,07,05,17,16.20
2021,07,07,05,18,16.20
2021,07,07,05,19,16.20
2021,07,07,05,20,16.20
2021,07,07,05,21,16.20
2021,07,07,05,22,16.20
2021,07,07,05,23,16.20
2021,07,07,05,24,16.20
2021,07,07,05,25,16.20
2021,07,07,05,26,16.20
2021,07,07,05,27,16.20
2021,07,07,05,28,16.20
2021,07,07,05,29,16.20
2021,07,07,05,30,16.30
2021,07,07,05,31,16.30
2021,07,07,05,32,16.20
2021,07,07,05,33,16.20
2021,07,07,05,34,16.20
2021,07,07,05,35,16.20
2021,07,07,05,36,16.20
2021,07,07,05,37,16.20
2021,07,07,05,38,16.20
2021,07,07,05,39,16.20
2021,07,07,05,40,16.20
2021,07,07,05,41,16.20
2021,07,07,05,42,16.20
2021,07,07,05,43,16.10
2021,07,07,05,44,16.10
2021,07,07,05,45,16.10
2021,07,07,05,46,16.10
2021,07,07,05,47,16.10
2021,07,07,05,48,16.00
2021,07,07,05,49,16.00
2021,07,07,05,50,16.00
2021,07,07,05,51,16.00
2021,07,07,05,52,16.00
2021,07,07,05,53,16.00
2021,07,07,05,54,15.90
2021,07,07,05,55,15.90
2021,07,07,05,56,15.90
2021,07,07,05,57,15.90
2021,07,07,05,58,15.90
2021,07,07,05,59,15.90
2021,07,07,06,00,15.80
2021,07,07,06,01,15.80
2021,07,07,06,02,15.80
2021,07,07,06,03,15.80
2021,07,07,06,04,15.80
2021,07,07,06,05,15.80
2021,07,07,06,06,15.70
2021,07,07,06,07,15.70
2021,07,07,06,08,15.70
2021,07,07,06,09,15.70
2021,07,07,06,10,15.70
2021,07,07,06,11,15.60
2021,07,07,06,12,15.60
2021,07,07,06,13,15.60
2021,07,07,06,14,15.60
2021,07,07,06,15,15.60
2021,07,07,06,16,15.60
2021,07,07,06,17,15.60
2021,07,07,06,18,15.50
2021,07,07,06,19,15.50
2021,07,07,06,20,15.50
2021,07,07,06,21,15.50
2021,07,07,06,22,15.50
2021,07,07,06,23,15.50
2021,07,07,06,24,15.40
2021,07,07,06,25,15.50
2021,07,07,06,26,15.50
2021,07,07,06,27,15.50
2021,07,07,06,28,15.50
2021,07,07,06,29,15.40
2021,07,07,06,30,15.40
2021,07,07,06,31,15.40
2021,07,07,06,32,15.40
2021,07,07,06,33,15.40
2021,07,07,06,34,15.40
2021,07,07,06,35,15.40
2021,07,07,06,36,15.40
2021,07,07,06,37,15.40
2021,07,07,06,38,15.40
2021,07,07,06,39,15.40
2021,07,07,06,40,15.40
2021,07,07,06,41,15.40
2021,07,07,06,42,15.50
2021,07,07,06,43,15.50
2021,07,07,06,44,15.50
2021,07,07,06,45,15.50
2021,07,07,06,46,15.60
2021,07,07,06,47,15.60
2021,07,07,06,48,15.60
2021,07,07,06,49,15.60
2021,07,07,06,50,15.60
2021,07,07,06,51,15.60
2021,07,07,06,52,15.60
2021,07,07,06,53,15.60
2021,07,07,06,54,15.60
2021,07,07,06,55,15.60
2021,07,07,06,56,15.60
2021,07,07,06,57,15.60
2021,07,07,06,58,15.60
2021,07,07,06,59,15.60
2021,07,07,07,00,15.60
2021,07,07,07,01,15.60
2021,07,07,07,02,15.60
2021,07,07,07,03,15.60
2021,07,07,07,04,15.60
2021,07,07,07,05,15.60
2021,07,07,07,06,15.60
2021,07,07,07,07,15.60
2021,07,07,07,08,15.60
2021,07,07,07,09,15.60
2021,07,07,07,10,15.60
2021,07,07,07,11,15.60
2021,07,07,07,12,15.60
2021,07,07,07,13,15.60
2021,07,07,07,14,15.60
2021,07,07,07,15,15.60
2021,07,07,07,16,15.60
2021,07,07,07,17,15.60
2021,07,07,07,18,15.60
2021,07,07,07,19,15.60
2021,07,07,07,20,15.60
2021,07,07,07,21,15.60
2021,07,07,07,22,15.60
2021,07,07,07,23,15.60
2021,07,07,07,24,15.60
2021,07,07,07,25,15.60
2021,07,07,07,26,15.60
2021,07,07,07,27,15.60
2021,07,07,07,28,15.60
2021,07,07,07,29,15.60
2021,07,07,07,30,15.60
2021,07,07,07,31,15.60
2021,07,07,07,32,15.50
2021,07,07,07,33,15.50
2021,07,07,07,34,15.50
2021,07,07,07,35,15.50
2021,07,07,07,36,15.50
2021,07,07,07,37,15.50
2021,07,07,07,38,15.50
2021,07,07,07,39,15.50
2021,07,07,07,40,15.50
2021,07,07,07,41,15.50
2021,07,07,07,42,15.50
2021,07,07,07,43,15.50
2021,07,07,07,44,15.50
2021,07,07,07,45,15.50
2021,07,07,07,46,15.60
2021,07,07,07,47,15.60
2021,07,07,07,48,15.60
2021,07,07,07,49,15.60
2021,07,07,07,50,15.60
2021,07,07,07,51,15.60
2021,07,07,07,52,15.60
2021,07,07,07,53,15.60
2021,07,07,07,54,15.60
2021,07,07,07,55,15.70
2021,07,07,07,56,15.70
2021,07,07,07,57,15.70
2021,07,07,07,58,15.70
2021,07,07,07,59,15.70
2021,07,07,08,00,15.70
2021,07,07,08,01,15.70
2021,07,07,08,02,15.70
2021,07,07,08,03,15.70
2021,07,07,08,04,15.70
2021,07,07,08,05,15.70
2021,07,07,08,06,15.70
2021,07,07,08,07,15.70
2021,07,07,08,08,15.70
2021,07,07,08,09,15.70
2021,07,07,08,10,15.70
2021,07,07,08,11,15.70
2021,07,07,08,12,15.80
2021,07,07,08,13,15.80
2021,07,07,08,14,15.80
2021,07,07,08,15,15.80
2021,07,07,08,16,15.80
2021,07,07,08,17,15.80
2021,07,07,08,18,15.80
2021,07,07,08,19,15.80
2021,07,07,08,20,15.80
2021,07,07,08,21,15.80
2021,07,07,08,22,15.80
2021,07,07,08,23,15.80
2021,07,07,08,24,15.80
2021,07,07,08,25,15.80
2021,07,07,08,26,15.80
2021,07,07,08,27,15.80
2021,07,07,08,28,15.80
2021,07,07,08,29,15.80
2021,07,07,08,30,15.90
2021,07,07,08,31,15.90
2021,07,07,08,32,15.90
2021,07,07,08,33,15.90
2021,07,07,08,34,15.90
2021,07,07,08,35,15.90
2021,07,07,08,36,15.90
2021,07,07,08,37,15.90
2021,07,07,08,38,16.00
2021,07,07,08,39,16.00
2021,07,07,08,40,16.00
2021,07,07,08,41,16.10
2021,07,07,08,42,16.10
2021,07,07,08,43,16.10
2021,07,07,08,44,16.20
2021,07,07,08,45,16.20
2021,07,07,08,46,16.30
2021,07,07,08,47,16.30
2021,07,07,08,48,16.40
2021,07,07,08,49,16.40
2021,07,07,08,50,16.50
2021,07,07,08,51,16.50
2021,07,07,08,52,16.60
2021,07,07,08,53,16.70
2021,07,07,08,54,16.70
2021,07,07,08,55,16.80
2021,07,07,08,56,16.80
2021,07,07,08,57,16.90
2021,07,07,08,58,16.90
2021,07,07,08,59,16.90
2021,07,07,09,00,17.00
2021,07,07,09,01,17.10
2021,07,07,09,02,17.10
2021,07,07,09,03,17.10
2021,07,07,09,04,17.10
2021,07,07,09,05,17.20
2021,07,07,09,06,17.20
2021,07,07,09,07,17.20
2021,07,07,09,08,17.30
2021,07,07,09,09,17.30
2021,07,07,09,10,17.30
2021,07,07,09,11,17.30
2021,07,07,09,12,17.40
2021,07,07,09,13,17.40
2021,07,07,09,14,17.40
2021,07,07,09,15,17.40
2021,07,07,09,16,17.50
2021,07,07,09,17,17.50
2021,07,07,09,18,17.60
2021,07,07,09,19,17.60
2021,07,07,09,20,17.60
2021,07,07,09,21,17.70
2021,07,07,09,22,17.70
2021,07,07,09,23,17.80
2021,07,07,09,24,17.80
2021,07,07,09,25,17.90
2021,07,07,09,26,17.90
2021,07,07,09,27,18.00
2021,07,07,09,28,18.00
2021,07,07,09,29,18.10
2021,07,07,09,30,18.20
2021,07,07,09,31,18.30
2021,07,07,09,32,18.30
2021,07,07,09,33,18.30
2021,07,07,09,34,18.40
2021,07,07,09,35,18.40
2021,07,07,09,36,18.50
2021,07,07,09,37,18.50
2021,07,07,09,38,18.60
2021,07,07,09,39,18.60
2021,07,07,09,40,18.60
2021,07,07,09,41,18.70
2021,07,07,09,42,18.70
2021,07,07,09,43,18.70
2021,07,07,09,44,18.80
2021,07,07,09,45,18.80
2021,07,07,09,46,18.90
2021,07,07,09,47,18.90
2021,07,07,09,48,18.90
2021,07,07,09,49,19.00
2021,07,07,09,50,19.00
2021,07,07,09,51,19.10
2021,07,07,09,52,19.10
2021,07,07,09,53,19.20
2021,07,07,09,54,19.20
2021,07,07,09,55,19.30
2021,07,07,09,56,19.40
2021,07,07,09,57,19.50
2021,07,07,09,58,19.60
2021,07,07,09,59,19.60
2021,07,07,10,00,19.70
2021,07,07,10,01,19.70
2021,07,07,10,02,19.80
2021,07,07,10,03,19.80
2021,07,07,10,04,19.90
2021,07,07,10,05,19.90
2021,07,07,10,06,19.90
2021,07,07,10,07,20.00
2021,07,07,10,08,20.00
2021,07,07,10,09,20.00
2021,07,07,10,10,20.10
2021,07,07,10,11,20.10
2021,07,07,10,12,20.10
2021,07,07,10,13,20.20
2021,07,07,10,14,20.20
2021,07,07,10,15,20.20
2021,07,07,10,16,20.20
2021,07,07,10,17,20.20
2021,07,07,10,18,20.20
2021,07,07,10,19,20.20
2021,07,07,10,20,20.20
2021,07,07,10,21,20.20
2021,07,07,10,22,20.10
2021,07,07,10,23,20.10
2021,07,07,10,24,20.00
2021,07,07,10,25,20.00
2021,07,07,10,26,20.00
2021,07,07,10,27,20.00
2021,07,07,10,28,20.00
2021,07,07,10,29,20.00
2021,07,07,10,30,20.00
2021,07,07,10,31,20.00
2021,07,07,10,32,20.00
2021,07,07,10,33,20.10
2021,07,07,10,34,20.10
2021,07,07,10,35,20.10
2021,07,07,10,36,20.10
2021,07,07,10,37,20.10
2021,07,07,10,38,20.10
2021,07,07,10,39,20.20
2021,07,07,10,40,20.20
2021,07,07,10,41,20.20
2021,07,07,10,42,20.30
2021,07,07,10,43,20.30
2021,07,07,10,44,20.30
2021,07,07,10,45,20.40
2021,07,07,10,46,20.40
2021,07,07,10,47,20.50
2021,07,07,10,48,20.50
2021,07,07,10,49,20.60
2021,07,07,10,50,20.60
2021,07,07,10,51,20.70
2021,07,07,10,52,20.70
2021,07,07,10,53,20.80
2021,07,07,10,54,20.80
2021,07,07,10,55,20.80
2021,07,07,10,56,20.90
2021,07,07,10,57,20.90
2021,07,07,10,58,20.90
2021,07,07,10,59,20.90
2021,07,07,11,00,21.00
2021,07,07,11,01,21.00
2021,07,07,11,02,21.10
2021,07,07,11,03,21.10
2021,07,07,11,04,21.10
2021,07,07,11,05,21.10
2021,07,07,11,06,21.10
2021,07,07,11,07,21.10
2021,07,07,11,08,21.10
2021,07,07,11,09,21.20
2021,07,07,11,10,21.20
2021,07,07,11,11,21.20
2021,07,07,11,12,21.30
2021,07,07,11,13,21.30
2021,07,07,11,14,21.30
2021,07,07,11,15,21.30
2021,07,07,11,16,21.30
2021,07,07,11,17,21.30
2021,07,07,11,18,21.30
2021,07,07,11,19,21.30
2021,07,07,11,20,21.30
2021,07,07,11,21,21.30
2021,07,07,11,22,21.30
2021,07,07,11,23,21.30
2021,07,07,11,24,21.30
2021,07,07,11,25,21.30
2021,07,07,11,26,21.30
2021,07,07,11,27,21.30
2021,07,07,11,28,21.30
2021,07,07,11,29,21.40
2021,07,07,11,30,21.40
2021,07,07,11,31,21.40
2021,07,07,11,32,21.50
2021,07,07,11,33,21.50
2021,07,07,11,34,21.50
2021,07,07,11,35,21.50
2021,07,07,11,36,21.60
2021,07,07,11,37,21.60
2021,07,07,11,38,21.60
2021,07,07,11,39,21.70
2021,07,07,11,40,21.70
2021,07,07,11,41,21.70
2021,07,07,11,42,21.80
2021,07,07,11,43,21.80
2021,07,07,11,44,21.80
2021,07,07,11,45,21.90
2021,07,07,11,46,21.90
2021,07,07,11,47,21.90
2021,07,07,11,48,22.00
2021,07,07,11,49,22.00
2021,07,07,11,50,22.10
2021,07,07,11,51,22.10
2021,07,07,11,52,22.10
2021,07,07,11,53,22.10
2021,07,07,11,54,22.20
2021,07,07,11,55,22.20
2021,07,07,11,56,22.20
2021,07,07,11,57,22.20
2021,07,07,11,58,22.20
2021,07,07,11,59,22.20
2021,07,07,12,00,22.20
2021,07,07,12,01,22.20
2021,07,07,12,02,22.30
2021,07,07,12,03,22.30
2021,07,07,12,04,22.40
2021,07,07,12,05,22.40
2021,07,07,12,06,22.40
2021,07,07,12,07,22.50
2021,07,07,12,08,22.50
2021,07,07,12,09,22.60
2021,07,07,12,10,22.60
2021,07,07,12,11,22.60
2021,07,07,12,12,22.60
2021,07,07,12,13,22.70
2021,07,07,12,14,22.70
2021,07,07,12,15,22.70
2021,07,07,12,16,22.70
2021,07,07,12,17,22.70
2021,07,07,12,18,22.80
2021,07,07,12,19,22.80
2021,07,07,12,20,22.90
2021,07,07,12,21,22.90
2021,07,07,12,22,23.00
2021,07,07,12,23,23.10
2021,07,07,12,24,23.20
2021,07,07,12,25,23.30
2021,07,07,12,26,23.40
2021,07,07,12,27,23.40
2021,07,07,12,28,23.50
2021,07,07,12,29,23.50
2021,07,07,12,30,23.60
2021,07,07,12,31,23.70
2021,07,07,12,32,23.70
2021,07,07,12,33,23.80
2021,07,07,12,34,23.90
2021,07,07,12,35,24.00
2021,07,07,12,36,24.10
2021,07,07,12,37,24.10
2021,07,07,12,38,24.20
2021,07,07,12,39,24.20
2021,07,07,12,40,24.20
2021,07,07,12,41,24.20
2021,07,07,12,42,24.10
2021,07,07,12,43,24.10
2021,07,07,12,44,24.10
2021,07,07,12,45,24.10
2021,07,07,12,46,24.10
2021,07,07,12,47,24.00
2021,07,07,12,48,24.00
2021,07,07,12,49,24.00
2021,07,07,12,50,24.00
2021,07,07,12,51,24.00
2021,07,07,12,52,24.00
2021,07,07,12,53,24.00
2021,07,07,12,54,24.00
2021,07,07,12,55,24.10
2021,07,07,12,56,24.10
2021,07,07,12,57,24.10
2021,07,07,12,58,24.10
2021,07,07,12,59,24.00
2021,07,07,13,00,24.00
2021,07,07,13,01,24.00
2021,07,07,13,02,24.00
2021,07,07,13,03,24.00
2021,07,07,13,04,24.10
2021,07,07,13,05,24.10
2021,07,07,13,06,24.10
2021,07,07,13,07,24.10
2021,07,07,13,08,24.10
2021,07,07,13,09,24.00
2021,07,07,13,10,24.00
2021,07,07,13,11,24.00
2021,07,07,13,12,23.90
2021,07,07,13,13,23.90
2021,07,07,13,14,23.90
2021,07,07,13,15,23.90
2021,07,07,13,16,23.90
2021,07,07,13,17,23.90
2021,07,07,13,18,23.80
2021,07,07,13,19,23.80
2021,07,07,13,20,23.80
2021,07,07,13,21,23.80
2021,07,07,13,22,23.80
2021,07,07,13,23,23.80
2021,07,07,13,24,23.80
2021,07,07,13,25,23.80
2021,07,07,13,26,23.80
2021,07,07,13,27,23.80
2021,07,07,13,28,23.70
2021,07,07,13,29,23.70
2021,07,07,13,30,23.60
2021,07,07,13,31,23.60
2021,07,07,13,32,23.50
2021,07,07,13,33,23.40
2021,07,07,13,34,23.40
2021,07,07,13,35,23.40
2021,07,07,13,36,23.30
2021,07,07,13,37,23.30
2021,07,07,13,38,23.30
2021,07,07,13,39,23.30
2021,07,07,13,40,23.30
2021,07,07,13,41,23.30
2021,07,07,13,42,23.30
2021,07,07,13,43,23.30
2021,07,07,13,44,23.30
2021,07,07,13,45,23.30
2021,07,07,13,46,23.30
2021,07,07,13,47,23.30
2021,07,07,13,48,23.30
2021,07,07,13,49,23.30
2021,07,07,13,50,23.40
2021,07,07,13,51,23.40
2021,07,07,13,52,23.40
2021,07,07,13,53,23.40
2021,07,07,13,54,23.40
2021,07,07,13,55,23.40
2021,07,07,13,56,23.40
2021,07,07,13,57,23.40
2021,07,07,13,58,23.50
2021,07,07,13,59,23.60
2021,07,07,14,00,23.60
2021,07,07,14,01,23.70
2021,07,07,14,02,23.80
2021,07,07,14,03,23.90
2021,07,07,14,04,24.00
2021,07,07,14,05,24.00
2021,07,07,14,06,24.10
2021,07,07,14,07,24.20
2021,07,07,14,08,24.20
2021,07,07,14,09,24.30
2021,07,07,14,10,24.30
2021,07,07,14,11,24.30
2021,07,07,14,12,24.30
2021,07,07,14,13,24.20
2021,07,07,14,14,24.30
2021,07,07,14,15,24.30
2021,07,07,14,16,24.40
2021,07,07,14,17,24.50
2021,07,07,14,18,24.50
2021,07,07,14,19,24.60
2021,07,07,14,20,24.70
2021,07,07,14,21,24.80
2021,07,07,14,22,24.80
2021,07,07,14,23,24.90
2021,07,07,14,24,24.90
2021,07,07,14,25,25.00
2021,07,07,14,26,25.00
2021,07,07,14,27,25.10
2021,07,07,14,28,25.10
2021,07,07,14,29,25.10
2021,07,07,14,30,25.00
2021,07,07,14,31,25.00
2021,07,07,14,32,25.00
2021,07,07,14,33,25.00
2021,07,07,14,34,25.00
2021,07,07,14,35,25.10
2021,07,07,14,36,25.10
2021,07,07,14,37,25.20
2021,07,07,14,38,25.20
2021,07,07,14,39,25.30
2021,07,07,14,40,25.30
2021,07,07,14,41,25.30
2021,07,07,14,42,25.20
2021,07,07,14,43,25.30
2021,07,07,14,44,25.30
2021,07,07,14,45,25.40
2021,07,07,14,46,25.40
2021,07,07,14,47,25.50
2021,07,07,14,48,25.60
2021,07,07,14,49,25.60
2021,07,07,14,50,25.60
2021,07,07,14,51,25.60
2021,07,07,14,52,25.60
2021,07,07,14,53,25.60
2021,07,07,14,54,25.70
2021,07,07,14,55,25.70
2021,07,07,14,56,25.60
2021,07,07,14,57,25.60
2021,07,07,14,58,25.70
2021,07,07,14,59,25.70
2021,07,07,15,00,25.70
2021,07,07,15,01,25.60
2021,07,07,15,02,25.50
2021,07,07,15,03,25.40
2021,07,07,15,04,25.40
2021,07,07,15,05,25.40
2021,07,07,15,06,25.30
2021,07,07,15,07,25.30
2021,07,07,15,08,25.30
2021,07,07,15,09,25.20
2021,07,07,15,10,25.10
2021,07,07,15,11,25.10
2021,07,07,15,12,25.10
2021,07,07,15,13,25.10
2021,07,07,15,14,25.10
2021,07,07,15,15,25.20
2021,07,07,15,16,25.30
2021,07,07,15,17,25.30
2021,07,07,15,18,25.30
2021,07,07,15,19,25.30
2021,07,07,15,20,25.30
2021,07,07,15,21,25.30
2021,07,07,15,22,25.40
2021,07,07,15,23,25.40
2021,07,07,15,24,25.40
2021,07,07,15,25,25.40
2021,07,07,15,26,25.50
2021,07,07,15,27,25.50
2021,07,07,15,28,25.60
2021,07,07,15,29,25.60
2021,07,07,15,30,25.60
2021,07,07,15,31,25.60
2021,07,07,15,32,25.60
2021,07,07,15,33,25.50
2021,07,07,15,34,25.60
2021,07,07,15,35,25.50
2021,07,07,15,36,25.50
2021,07,07,15,37,25.50
2021,07,07,15,38,25.50
2021,07,07,15,39,25.50
2021,07,07,15,40,25.40
2021,07,07,15,41,25.40
2021,07,07,15,42,25.40
2021,07,07,15,43,25.40
2021,07,07,15,44,25.50
2021,07,07,15,45,25.50
2021,07,07,15,46,25.50
2021,07,07,15,47,25.60
2021,07,07,15,48,25.60
2021,07,07,15,49,25.70
2021,07,07,15,50,25.80
2021,07,07,15,51,25.90
2021,07,07,15,52,25.90
2021,07,07,15,53,25.90
2021,07,07,15,54,25.90
2021,07,07,15,55,25.90
2021,07,07,15,56,25.90
2021,07,07,15,57,25.90
2021,07,07,15,58,25.90
2021,07,07,15,59,25.90
2021,07,07,16,00,25.80
2021,07,07,16,01,25.70
2021,07,07,16,02,25.70
2021,07,07,16,03,25.60
2021,07,07,16,04,25.60
2021,07,07,16,05,25.70
2021,07,07,16,06,25.70
2021,07,07,16,07,25.80
2021,07,07,16,08,25.90
2021,07,07,16,09,25.90
2021,07,07,16,10,26.00
2021,07,07,16,11,26.00
2021,07,07,16,12,26.10
2021,07,07,16,13,26.20
2021,07,07,16,14,26.20
2021,07,07,16,15,26.20
2021,07,07,16,16,26.20
2021,07,07,16,17,26.20
2021,07,07,16,18,26.20
2021,07,07,16,19,26.10
2021,07,07,16,20,26.00
2021,07,07,16,21,26.00
2021,07,07,16,22,25.90
2021,07,07,16,23,25.90
2021,07,07,16,24,25.90
2021,07,07,16,25,25.90
2021,07,07,16,26,25.90
2021,07,07,16,27,25.80
2021,07,07,16,28,25.80
2021,07,07,16,29,25.80
2021,07,07,16,30,25.80
2021,07,07,16,31,25.70
2021,07,07,16,32,25.70
2021,07,07,16,33,25.70
2021,07,07,16,34,25.70
2021,07,07,16,35,25.70
2021,07,07,16,36,25.60
2021,07,07,16,37,25.50
2021,07,07,16,38,25.50
2021,07,07,16,39,25.40
2021,07,07,16,40,25.30
2021,07,07,16,41,25.30
2021,07,07,16,42,25.30
2021,07,07,16,43,25.20
2021,07,07,16,44,25.20
2021,07,07,16,45,25.10
2021,07,07,16,46,25.10
2021,07,07,16,47,25.00
2021,07,07,16,48,25.00
2021,07,07,16,49,25.00
2021,07,07,16,50,24.90
2021,07,07,16,51,24.90
2021,07,07,16,52,24.90
2021,07,07,16,53,24.90
2021,07,07,16,54,24.90
2021,07,07,16,55,24.90
2021,07,07,16,56,24.80
2021,07,07,16,57,24.80
2021,07,07,16,58,24.80
2021,07,07,16,59,24.80
2021,07,07,17,00,24.90
2021,07,07,17,01,24.90
2021,07,07,17,02,24.90
2021,07,07,17,03,24.90
2021,07,07,17,04,24.90
2021,07,07,17,05,25.00
2021,07,07,17,06,25.00
2021,07,07,17,07,25.10
2021,07,07,17,08,25.10
2021,07,07,17,09,25.10
2021,07,07,17,10,25.20
2021,07,07,17,11,25.30
2021,07,07,17,12,25.30
2021,07,07,17,13,25.40
2021,07,07,17,14,25.40
2021,07,07,17,15,25.40
2021,07,07,17,16,25.50
2021,07,07,17,17,25.50
2021,07,07,17,18,25.60
2021,07,07,17,19,25.70